Wind_Speed
21 21 21 22 23 23 23 23 22 22 22 22 22 23 23 22 21 21 20 21 21 22 22 23 24 25 25 26 27 28 28 28 28 29 29 30 30 31
21 22 22 23 22 23 23 23 23 23 23 23 23 23 23 23 23 23 23 23 22 23 23 24 25 26 26 26 27 27 27 28 29 29 29 29 29 30
22 22 23 23 23 23 23 22 22 23 22 22 22 22 22 23 23 23 24 24 24 24 24 24 25 26 26 26 26 26 27 27 28 28 29 30 30 31
22 23 23 22 23 22 22 22 22 22 22 22 22 22 22 22 23 23 23 24 24 25 25 24 25 25 26 26 27 27 27 27 28 29 30 31 31 32
23 23 23 23 22 22 22 22 22 22 21 21 22 22 22 22 23 22 23 24 24 25 25 25 25 25 25 26 26 27 27 28 28 28 30 31 32 32
23 23 23 22 22 21 21 21 21 21 21 21 21 21 21 22 23 23 23 25 25 25 24 24 25 25 25 26 26 27 28 28 28 28 29 30 31 32
22 22 22 22 21 22 22 21 21 21 21 21 22 22 22 22 23 23 24 24 25 25 24 24 25 25 26 27 26 27 28 29 29 29 30 30 31 32
22 23 22 22 22 22 22 21 21 21 22 22 22 23 23 23 24 24 25 24 24 24 24 24 25 25 26 27 27 27 28 29 29 29 30 31 32 32
23 23 23 23 23 22 22 22 22 22 22 22 22 23 23 23 24 24 24 24 24 24 24 24 24 24 25 26 27 27 27 28 28 28 29 30 30 31
22 23 23 22 23 23 23 23 23 23 23 23 23 23 23 24 24 24 23 23 24 25 25 25 25 25 25 26 27 27 27 27 26 27 28 28 28 29
22 22 22 22 23 23 23 24 24 24 24 24 24 24 24 25 25 24 24 24 24 25 25 25 25 25 26 25 26 26 26 26 26 26 27 27 27 28
22 22 23 23 24 24 24 24 24 24 24 25 25 25 25 25 25 25 25 24 23 23 24 24 25 25 25 26 26 26 25 25 26 26 26 27 26 26
23 23 23 24 24 24 24 24 24 24 24 24 24 24 24 24 24 25 24 24 23 23 23 24 25 25 25 25 25 24 24 24 24 24 25 24 24 24
22 23 23 23 23 23 23 23 23 24 23 23 24 24 24 24 24 23 23 23 23 23 23 24 24 24 24 24 23 23 24 24 23 23 23 23 23 22
23 22 23 22 23 23 23 23 23 23 23 24 24 24 24 23 23 22 22 22 23 23 23 23 24 23 23 23 22 22 23 23 24 23 23 22 22 22
23 22 22 22 22 22 22 23 23 24 24 23 23 23 23 23 22 22 22 22 22 23 23 24 24 23 22 22 22 22 23 23 23 23 23 22 21 21
22 21 21 20 20 21 21 22 22 23 22 22 22 22 22 21 21 22 22 22 22 22 23 23 23 22 22 22 21 21 21 22 22 21 20 20 20 20
21 21 20 19 19 19 19 19 20 20 20 20 20 20 20 21 21 21 22 21 21 21 22 22 22 22 22 21 21 20 20 20 20 20 19 19 19 19
19 19 19 18 18 18 18 18 18 18 19 19 19 19 20 20 19 20 20 20 20 20 20 20 20 20 21 21 20 20 20 20 19 19 19 19 18 19
17 17 17 17 17 17 17 17 17 18 18 18 18 18 18 18 18 18 18 18 19 19 20 20 20 20 20 20 20 20 20 20 19 18 18 18 18 18
16 16 16 16 16 16 16 16 16 16 16 16 17 16 16 16 17 17 17 18 18 18 19 20 20 19 19 19 19 19 19 19 18 18 17 17 17 17
16 16 16 16 16 16 16 15 15 15 15 15 15 15 16 16 16 17 17 18 18 18 18 18 18 18 18 18 17 17 17 17 16 16 16 16 15 16
16 16 16 16 15 15 15 14 14 13 14 14 14 15 15 16 16 17 17 17 17 17 17 18 18 18 18 17 16 15 16 16 15 15 15 15 14 14
Wind_Direction
277 277 276 276 276 278 281 282 281 283 283 281 280 282 281 279 280 281 279 277 275 273 274 276 276 275 276 277 273 271 269 268 266 263 261 258 257 256
279 280 280 278 276 277 278 279 279 281 282 280 280 282 279 279 281 280 279 280 279 278 279 278 277 276 277 277 276 274 271 269 267 264 262 259 257 256
280 280 279 280 278 279 279 281 281 282 281 279 279 279 279 279 280 279 280 280 281 281 280 278 277 277 277 277 276 274 272 270 267 264 263 261 260 258
279 281 280 281 281 281 280 281 282 281 279 278 278 280 280 280 280 281 282 282 281 281 280 279 279 278 278 278 278 276 274 270 267 265 264 263 262 261
278 278 279 280 281 281 281 281 281 281 279 279 279 280 282 282 282 282 282 282 282 281 280 280 280 279 280 280 280 278 275 271 269 267 265 265 264 262
277 276 277 278 278 279 281 282 281 281 281 281 280 281 283 283 283 282 282 283 283 282 280 279 279 280 280 280 279 279 276 272 270 269 267 266 264 264
275 275 277 277 277 278 280 283 283 283 282 282 282 282 283 284 284 283 282 284 283 282 280 279 279 280 279 279 279 280 276 273 272 270 269 267 266 265
274 274 275 277 277 280 280 281 282 282 281 281 281 282 284 285 286 285 283 284 284 282 281 282 284 283 284 283 282 280 279 276 273 271 269 268 268 266
273 273 275 277 277 279 280 280 280 281 281 282 282 283 283 284 286 286 286 286 285 285 284 285 286 287 286 285 284 283 283 280 276 273 272 270 270 267
272 273 274 275 276 277 277 278 280 280 281 281 282 284 284 284 286 287 286 287 288 287 286 286 287 288 289 289 289 286 284 282 279 275 274 273 271 269
275 275 275 275 278 277 277 277 279 280 280 280 281 283 284 285 286 286 286 287 289 289 289 289 289 288 290 291 290 287 285 283 280 278 276 275 273 272
275 276 277 278 279 279 278 277 279 279 280 281 283 283 284 284 285 286 286 286 287 289 290 290 290 290 291 292 291 288 287 285 283 282 280 278 276 275
274 276 278 280 280 278 277 278 278 278 279 280 283 284 286 286 285 285 285 286 287 288 290 291 292 292 292 293 292 290 288 287 285 284 284 280 278 276
275 276 278 280 279 277 277 277 278 278 279 280 282 284 285 287 287 286 284 285 287 289 292 294 295 294 295 295 292 290 288 286 285 285 286 282 279 275
277 277 278 279 279 277 276 277 278 279 280 281 283 284 285 285 287 288 287 286 288 290 293 295 297 296 298 298 295 291 290 288 287 287 286 283 279 274
277 278 278 278 279 278 278 278 278 280 281 281 282 283 284 286 286 288 288 288 289 290 293 295 296 297 299 299 298 294 292 290 289 287 285 281 276 274
277 278 279 279 279 281 281 281 280 280 281 281 282 284 286 287 288 290 290 290 290 291 293 295 295 296 298 297 297 297 294 292 291 289 285 280 274 272
277 278 279 279 281 281 283 284 282 282 282 281 283 284 286 288 291 291 291 291 292 293 294 294 293 295 296 296 296 296 295 294 293 291 288 284 277 273
275 277 278 280 281 281 282 284 285 285 284 284 286 286 288 288 290 290 291 293 294 295 297 297 296 298 297 295 293 294 295 294 292 289 288 285 280 277
274 275 277 280 282 283 283 284 287 287 286 287 287 287 288 288 290 292 294 297 297 297 299 299 300 302 302 299 294 293 296 296 293 290 288 283 280 278
272 276 279 281 282 284 285 285 286 288 289 289 289 289 288 288 291 294 297 300 301 300 300 302 303 304 304 302 299 297 297 296 296 293 290 288 285 283
273 277 280 281 281 283 286 287 287 289 291 292 292 293 291 293 294 296 298 301 303 302 302 303 305 306 306 304 302 301 300 300 298 296 295 293 291 289
275 275 276 278 281 285 287 287 289 292 296 296 296 297 295 294 298 299 299 301 303 304 305 305 308 309 309 307 305 304 304 303 299 297 297 295 294 293
Height
5798 5797 5797 5796 5795 5794 5793 5792 5792 5791 5791 5790 5788 5787 5786 5785 5785 5784 5783 5783 5782 5782 5782 5782 5781 5780 5779 5778 5777 5776 5776 5776 5776 5776 5776 5777 5778 5779
5792 5791 5790 5790 5789 5788 5787 5786 5785 5785 5784 5783 5782 5781 5780 5779 5778 5778 5777 5776 5776 5776 5775 5774 5774 5773 5772 5771 5769 5768 5767 5767 5767 5767 5768 5768 5769 5770
5786 5785 5785 5784 5783 5782 5781 5780 5779 5778 5777 5777 5775 5774 5774 5773 5772 5771 5771 5770 5769 5769 5768 5767 5766 5766 5765 5763 5762 5760 5759 5759 5759 5759 5759 5760 5760 5761
5780 5779 5778 5778 5777 5776 5775 5774 5773 5772 5771 5770 5770 5768 5767 5767 5766 5765 5764 5763 5763 5762 5761 5760 5759 5758 5757 5756 5754 5753 5752 5751 5750 5750 5751 5751 5751 5752
5774 5773 5772 5772 5771 5770 5769 5768 5767 5766 5765 5764 5763 5762 5761 5761 5760 5759 5758 5757 5756 5755 5754 5753 5752 5751 5749 5748 5746 5745 5744 5743 5742 5742 5741 5742 5742 5742
5767 5767 5766 5765 5765 5764 5763 5762 5761 5760 5759 5758 5757 5756 5755 5754 5753 5752 5752 5750 5749 5748 5747 5746 5744 5743 5741 5740 5739 5737 5736 5734 5733 5732 5732 5732 5732 5732
5761 5760 5760 5759 5759 5758 5757 5756 5755 5754 5753 5752 5751 5750 5749 5748 5747 5746 5745 5743 5742 5741 5739 5738 5737 5736 5733 5732 5730 5728 5727 5725 5724 5723 5723 5722 5722 5722
5754 5754 5753 5753 5752 5752 5751 5750 5749 5748 5748 5747 5745 5744 5743 5741 5740 5739 5738 5737 5735 5735 5732 5731 5729 5727 5725 5723 5721 5720 5718 5716 5715 5714 5713 5713 5712 5712
5747 5747 5747 5746 5746 5745 5744 5744 5743 5742 5742 5741 5739 5738 5737 5735 5734 5733 5731 5729 5728 5726 5725 5723 5722 5719 5717 5715 5713 5711 5709 5707 5706 5705 5704 5703 5702 5702
5740 5740 5740 5739 5739 5739 5738 5737 5736 5735 5735 5734 5733 5731 5730 5729 5727 5726 5724 5722 5721 5719 5717 5716 5714 5712 5709 5707 5704 5702 5700 5698 5697 5695 5695 5694 5693 5693
5733 5733 5732 5732 5732 5732 5731 5730 5729 5728 5728 5727 5726 5724 5723 5722 5720 5719 5717 5716 5714 5712 5710 5708 5706 5704 5702 5699 5697 5694 5692 5690 5689 5687 5686 5686 5685 5684
5726 5726 5725 5725 5725 5724 5724 5723 5722 5721 5721 5719 5718 5717 5715 5714 5713 5712 5710 5709 5707 5705 5703 5701 5699 5696 5695 5692 5689 5686 5684 5682 5680 5679 5678 5677 5676 5676
5719 5719 5718 5718 5717 5717 5716 5716 5715 5714 5713 5712 5711 5710 5708 5707 5706 5704 5703 5702 5700 5698 5696 5694 5691 5689 5687 5684 5681 5678 5676 5674 5673 5672 5670 5669 5668 5668
5712 5712 5711 5711 5710 5709 5708 5708 5707 5706 5706 5705 5704 5703 5701 5700 5698 5697 5696 5694 5693 5691 5689 5687 5685 5682 5680 5677 5674 5672 5669 5667 5666 5664 5663 5662 5661 5660
5704 5704 5704 5703 5702 5702 5701 5700 5700 5699 5698 5698 5697 5696 5694 5693 5691 5690 5689 5687 5686 5684 5682 5680 5678 5675 5673 5670 5667 5665 5663 5661 5659 5657 5656 5654 5654 5653
5697 5697 5696 5695 5695 5694 5694 5693 5692 5692 5691 5690 5689 5688 5687 5686 5685 5683 5682 5681 5679 5677 5675 5673 5671 5669 5666 5663 5660 5658 5655 5654 5652 5650 5648 5647 5646 5646
5690 5690 5689 5689 5688 5688 5687 5686 5685 5685 5684 5683 5683 5682 5681 5679 5678 5677 5675 5674 5672 5670 5669 5666 5664 5662 5659 5657 5654 5651 5649 5647 5645 5643 5642 5641 5640 5639
5683 5683 5683 5682 5682 5681 5681 5680 5679 5679 5678 5677 5676 5675 5674 5673 5672 5670 5669 5667 5665 5664 5662 5659 5657 5655 5653 5651 5649 5646 5643 5641 5639 5637 5635 5635 5634 5633
5677 5677 5677 5677 5676 5676 5675 5675 5674 5673 5672 5671 5670 5669 5668 5667 5665 5664 5662 5661 5659 5658 5656 5653 5651 5649 5647 5645 5643 5640 5638 5636 5633 5631 5630 5629 5628 5627
5671 5671 5671 5671 5671 5670 5670 5669 5668 5667 5666 5666 5664 5663 5662 5661 5660 5658 5657 5655 5654 5652 5650 5648 5646 5643 5641 5639 5637 5634 5632 5630 5628 5626 5625 5623 5622 5621
5666 5667 5667 5666 5666 5665 5665 5664 5663 5662 5661 5660 5659 5658 5657 5656 5655 5653 5652 5650 5648 5646 5645 5643 5640 5637 5635 5632 5630 5629 5627 5624 5622 5621 5620 5618 5617 5616
5662 5662 5662 5662 5661 5661 5660 5659 5658 5657 5656 5655 5654 5653 5652 5651 5650 5648 5647 5645 5643 5641 5639 5637 5634 5632 5629 5627 5625 5624 5622 5620 5618 5616 5614 5613 5612 5611
5657 5657 5657 5657 5656 5656 5656 5655 5654 5653 5652 5651 5649 5648 5647 5646 5645 5643 5642 5640 5638 5637 5635 5632 5630 5627 5625 5623 5621 5620 5618 5616 5614 5612 5611 5609 5608 5607